Weather History for KPWK - April, 2014

Change the Weather History Date:

Wednesday, April 30, 2014

  Actual Average Record
Temperature  
Mean Temperature 49 °F 53 °F  
Max Temperature 54 °F 64 °F 85 °F (2013)
Min Temperature 44 °F 42 °F 30 °F (2008)
Degree Days  
Heating Degree Days 16 12  
Month to date heating degree days 508 521  
Since 1 July heating degree days 6914 6113  
Cooling Degree Days 0 0  
Month to date cooling degree days 0 4  
Year to date cooling degree days 0 4  
Moisture  
Dew Point 42 °F    
Average Humidity 77    
Maximum Humidity 93    
Minimum Humidity 61    
Precipitation  
Precipitation T in 0.18 in 1.70 in (2003)
Month to date precipitation 2.88 2.97  
Year to date precipitation 5.56 7.80  
Sea Level Pressure  
Sea Level Pressure 29.74 in    
Wind  
Wind Speed 9 mph (SSW)    
Max Wind Speed 17 mph    
Max Gust Speed 22 mph    
Visibility 10 miles    
Events      
T = Trace of Precipitation, MM = Missing Value Source: NWS Daily Summary

Daily Weather History Graph

Daily Weather History Graph

Search for Another Location

Airport or City:

Trip Planner

Search our weather history database for the weather conditions in past years. The results will help you decide how hot, cold, wet, or windy it might be!

Date:

Astronomy

Apr. 30, 2014 Rise Set
Actual Time 5:48 AM CDT 7:49 PM CDT
Civil Twilight 5:18 AM CDT 8:20 PM CDT
Nautical Twilight 4:41 AM CDT 8:57 PM CDT
Astronomical Twilight 4:00 AM CDT 9:38 PM CDT
Moon 6:49 AM CDT (4/30) 9:29 PM CDT (4/30)
Length of Visible Light 15h 01m
Length of Day
14h 00m
New Moon, 2% of the Moon is Illuminated
Apr 30
New Moon
May 6
First Quarter
May 14
Full
May 21
Last Quarter
May 28
New

Hourly Weather History & Observations

Time (CDT) Temp. Windchill Dew Point Humidity Pressure Visibility Wind Dir Wind Speed Gust Speed Precip Events Conditions
12:52 AM 50.0 °F - 48.0 °F 93% 29.69 in 10.0 mi South 4.6 mph - N/A   Overcast
1:52 AM 50.0 °F - 48.0 °F 93% 29.68 in 10.0 mi South 3.5 mph - N/A   Overcast
2:13 AM 51.1 °F - 48.0 °F 89% 29.67 in 10.0 mi South 3.5 mph - N/A   Overcast
2:39 AM 50.0 °F - 48.0 °F 93% 29.67 in 10.0 mi South 3.5 mph - N/A   Overcast
2:52 AM 51.1 °F - 46.9 °F 86% 29.68 in 10.0 mi South 5.8 mph - N/A   Overcast
3:52 AM 51.1 °F - 46.0 °F 83% 29.68 in 10.0 mi South 9.2 mph - N/A   Overcast
4:52 AM 48.9 °F - 45.0 °F 86% 29.69 in 10.0 mi South 8.1 mph - N/A   Mostly Cloudy
5:40 AM 50.0 °F - 45.0 °F 83% 29.70 in 10.0 mi South 6.9 mph - N/A   Mostly Cloudy
5:52 AM 50.0 °F - 45.0 °F 83% 29.70 in 10.0 mi South 8.1 mph - N/A   Overcast
6:52 AM 51.1 °F - 45.0 °F 80% 29.71 in 10.0 mi SSW 6.9 mph - N/A   Overcast
7:33 AM 51.1 °F - 46.0 °F 83% 29.71 in 10.0 mi SSW 8.1 mph - N/A   Overcast
7:52 AM 51.1 °F - 46.9 °F 86% 29.71 in 10.0 mi SSW 11.5 mph - N/A   Overcast
8:52 AM 52.0 °F - 46.9 °F 83% 29.71 in 10.0 mi SSW 6.9 mph - N/A   Overcast
10:52 AM 52.0 °F - 46.9 °F 83% 29.73 in 10.0 mi SW 10.4 mph - N/A   Overcast
11:52 AM 52.0 °F - 46.0 °F 80% 29.75 in 10.0 mi SW 9.2 mph - N/A   Overcast
12:52 PM 52.0 °F - 43.0 °F 71% 29.75 in 10.0 mi WSW 10.4 mph - N/A   Overcast
1:52 PM 51.1 °F - 41.0 °F 68% 29.75 in 10.0 mi WSW 11.5 mph - N/A   Overcast
2:52 PM 50.0 °F - 39.0 °F 66% 29.77 in 10.0 mi WSW 10.4 mph - N/A   Overcast
3:52 PM 48.9 °F - 37.0 °F 64% 29.79 in 10.0 mi WSW 10.4 mph 19.6 mph N/A   Overcast
4:52 PM 46.9 °F - 35.1 °F 63% 29.80 in 10.0 mi WSW 12.7 mph 20.7 mph N/A   Overcast
5:00 PM 48.0 °F - 35.1 °F 61% 29.79 in 10.0 mi WSW 13.8 mph - N/A   Overcast
5:52 PM 46.9 °F - 34.0 °F 61% 29.80 in 10.0 mi WSW 12.7 mph 20.7 mph N/A   Overcast
6:52 PM 46.9 °F - 34.0 °F 61% 29.79 in 10.0 mi WSW 11.5 mph 18.4 mph N/A   Mostly Cloudy
7:52 PM 46.9 °F - 35.1 °F 63% 29.80 in 10.0 mi SW 8.1 mph - N/A   Overcast
8:52 PM 46.0 °F 41.9 °F 35.1 °F 66% 29.81 in 10.0 mi SSW 8.1 mph - N/A   Partly Cloudy
9:52 PM 44.1 °F 39.5 °F 36.0 °F 73% 29.81 in 10.0 mi South 8.1 mph - N/A   Partly Cloudy
10:52 PM 46.0 °F 41.4 °F 37.0 °F 71% 29.79 in 10.0 mi South 9.2 mph - N/A   Overcast
11:52 PM 46.9 °F - 37.9 °F 71% 29.76 in 10.0 mi South 11.5 mph - N/A   Overcast